Home > Weather > Aurillac > Past weeks

Flag for France Past Weather in Aurillac, Auvergne, France — Yesterday and Last 2 Weeks

Now
73 °F

Passing clouds.


Feels Like: 77 °F
Forecast: 51 / 77 °F
Wind: 5 mph from Northwest

Location: Aurillac

Current Time: Jun 28, 2016 at 5:14:38 PM

Latest Report: Jun 28, 2016 at 4:00 PM


Visibility: 25 mi

Pressure: 30.01 "Hg (27.91 "Hg at 627m altitude)

Humidity: 58%

Dew Point: 58 °F

Location of AurillacLocation

Past Weather in Aurillac — Graph

°F

Aurillac Temperature Yesterday

Maximum temperature yesterday: 69 °F (at 6:00 PM)
Minimum temperature yesterday: 47 °F (at 7:00 AM)
Average temperature yesterday: 59 °F

High & Low Weather Summary for the Past Weeks

 TemperatureHumidityPressure
High84 °F (Jun 22, 4:00 PM)99% (Jun 28, 7:00 AM)30.34 "Hg (Jun 28, 7:00 AM)
Low45 °F (Jun 20, 6:00 AM)32% (Jun 23, 2:00 PM)29.55 "Hg (Jun 15, 7:00 PM)
Average60 °F77%30.03 "Hg
* Reported Jun 13 4:00 PM — Jun 28 4:00 PM, Aurillac, Weather by CustomWeather, © 2016

Note: Actual official high and low records may vary slightly from our data, if they occured in-between our weather recording intervals... More about our weather records

Advertising

Aurillac Weather History for the Previous 24 Hours

Scroll right to see more
 ConditionsComfort  
Time TempWeatherWind HumidityBarometerVisibility
4:00 PM
Tue, Jun 28
73 °FPassing clouds.5 mph58%30.01 "Hg25 mi
3:00 PM71 °FPassing clouds.2 mph66%30.03 "Hg25 mi
2:00 PM69 °FPassing clouds.6 mph62%30.06 "Hg25 mi
1:00 PM69 °FPassing clouds.6 mph58%30.09 "Hg22 mi
12:00 PM66 °FPassing clouds.6 mph70%30.11 "Hg22 mi
11:00 AM64 °FPassing clouds.8 mph74%30.11 "Hg25 mi
10:00 AM62 °FPassing clouds.2 mph79%30.12 "Hg16 mi
9:00 AM57 °FPassing clouds.No wind93%30.15 "Hg7 mi
8:00 AM53 °FFog.1 mph99%30.18 "Hg0 mi
7:00 AM52 °FFog.No wind99%30.19 "Hg0 mi
6:00 AM50 °FFog.No wind98%30.19 "Hg0 mi
5:00 AM51 °FLight rain. Dense fog.1 mph98%30.19 "Hg0 mi
4:00 AM52 °FCool.3 mph97%30.19 "Hg5 mi
3:00 AM53 °FCool.1 mph95%30.21 "Hg4 mi
2:00 AM54 °FCool.2 mph95%30.20 "Hg12 mi
1:00 AM55 °FCool.2 mph90%30.21 "Hg25 mi
12:00 AM56 °FCool.2 mph89%30.22 "Hg31 mi
11:00 PM
Mon, Jun 27
58 °FCool.3 mph86%30.20 "Hg34 mi
10:00 PM60 °FCool.6 mph80%30.18 "Hg28 mi
9:00 PM64 °FMild.8 mph71%30.16 "Hg37 mi
8:00 PM67 °FMild.10 mph63%30.14 "Hg31 mi
7:00 PM68 °FMild.12 mph60%30.14 "Hg12 mi
6:00 PM69 °FMild.12 mph58%30.14 "Hg12 mi
5:00 PM69 °FScattered clouds.9 mph56%30.15 "Hg9 mi
Weather by CustomWeather, © 2016

See weather overviewHow to use our weather pages